Location: Newark
(49.8753°N, 23.0797°E)
Time: 01:32:20
(UTC+00:00)

X-37B - Pass Details

Date: 29 June 2021
Orbit: 383 x 392 km, 45.0° (Epoch: 01 July)

Event Time Altitude Azimuth Distance (km) Brightness Sun altitude
Rises 19:31:46 0° 258° (WSW) 2,258 4.9 -6.8°
Reaches altitude 10° 19:33:56 10° 249° (WSW) 1,403 3.7 -7.0°
Maximum altitude 19:36:49 33° 182° (S) 664 1.4 -7.3°
Drops below altitude 10° 19:39:42 10° 116° (ESE) 1,401 2.8 -7.6°
Enters shadow 19:40:01 - 114° (ESE) 1,519 3.0 -7.7°
